Latest Weather Observations for Maria Island

IDT60801

Issued at 8:04 pm EDT Friday 19 December 2014 (issued every 30 minutes, with the page automatically refreshed every 10 minutes)

About weather observations | Map of weather stations | Latest weather observations for TAS | Other Formats
Station Details ID: 092124 Name: MARIA ISLAND (POINT LESUEUR) Lat: -42.66 Lon: 148.02 Height: 28.0 m
Data from the previous 72 hours. | See also: Recent months at Maria Island
Date/Time
EDT
Temp
°C
App
Temp
°C
Dew
Point
Rel
Hum
%
Delta-T
°C
Wind Press
QNH
hPa
Press
MSL
hPa
Rain
since 9 am
mm
Dir
 
Spd
km/h
Gust
km/h
Spd
kts
Gust
kts
19/08:00pm 14.0 9.8 7.3 64 3.3 NNE 19 24 10 13 1013.8 1013.8 0.0
19/07:30pm 14.5 10.8 7.8 64 3.3 N 17 20 9 11 1013.4 1013.4 0.0
19/07:00pm 14.3 12.3 6.9 61 3.6 ENE 7 13 4 7 1013.4 1013.4 0.0
19/06:30pm 14.7 11.6 7.3 61 3.6 E 13 15 7 8 1013.0 1013.0 0.0
19/06:00pm 14.4 10.9 7.0 61 3.6 E 15 20 8 11 1013.0 1013.0 0.0
19/05:30pm 15.0 11.8 6.8 58 4.0 E 13 20 7 11 1012.7 1012.7 0.0
19/05:00pm 14.7 10.4 7.0 60 3.8 E 19 24 10 13 1012.5 1012.5 0.0
19/04:30pm 14.2 8.9 7.0 62 3.5 E 24 30 13 16 1012.4 1012.4 0.0
19/04:00pm 14.9 9.7 7.2 60 3.8 E 24 28 13 15 1012.1 1012.0 0.0
19/03:30pm 15.9 11.3 6.6 54 4.6 ESE 20 26 11 14 1011.8 1011.7 0.0
19/03:00pm 16.6 11.3 6.7 52 4.9 S 24 32 13 17 1011.7 1011.6 0.0
19/02:30pm 15.7 12.4 6.4 54 4.5 SSE 13 17 7 9 1011.8 1011.7 0.0
19/02:00pm 16.8 12.2 6.6 51 5.0 S 20 24 11 13 1011.3 1011.2 0.0
19/01:30pm 16.5 11.0 6.1 50 5.1 S 24 33 13 18 1011.5 1011.4 0.0
19/01:00pm 17.0 11.5 5.9 48 5.4 S 24 32 13 17 1011.6 1011.5 0.0
19/12:30pm 17.1 12.1 6.3 49 5.3 S 22 28 12 15 1011.4 1011.3 0.0
19/12:00pm 16.7 11.4 6.8 52 4.9 S 24 28 13 15 1011.4 1011.3 0.0
19/11:30am 15.6 10.9 5.2 50 4.9 S 19 24 10 13 1011.7 1011.6 0.0
19/11:00am 14.6 9.5 5.9 56 4.2 S 22 30 12 16 1011.8 1011.7 0.0
19/10:30am 14.6 8.2 5.1 53 4.5 SSW 28 35 15 19 1011.8 1011.7 0.0
19/10:00am 14.7 8.7 5.2 53 4.5 SSW 26 35 14 19 1012.0 1011.9 0.0
19/09:30am 14.6 7.3 4.6 51 4.6 SW 32 43 17 23 1011.7 1011.6 0.0
19/09:00am 14.4 8.9 4.1 50 4.7 SW 22 30 12 16 1011.6 1011.5 0.0
19/08:30am 13.9 8.9 4.8 54 4.2 WSW 20 28 11 15 1011.4 1011.3 0.0
19/08:00am 13.2 7.1 4.6 56 4.0 SW 26 35 14 19 1011.2 1011.1 0.0
19/07:30am 12.9 7.6 5.1 59 3.6 SW 22 26 12 14 1010.9 1010.8 0.0
19/07:00am 12.3 7.2 3.3 54 4.0 WSW 19 24 10 13 1010.5 1010.4 0.0
19/06:30am 11.7 7.9 5.8 67 2.8 WSW 15 20 8 11 1010.1 1010.0 0.0
19/05:30am 11.1 7.5 5.2 67 2.7 W 13 17 7 9 1009.2 1009.1 0.0
19/05:00am 11.6 7.8 5.7 67 2.7 SW 15 20 8 11 1008.6 1008.5 0.0
19/04:30am 11.4 7.8 5.1 65 2.9 WSW 13 17 7 9 1008.3 1008.2 0.0
19/04:00am 11.5 6.7 4.7 63 3.1 WSW 19 24 10 13 1008.0 1007.9 0.0
19/03:30am 11.7 6.9 4.9 63 3.1 WSW 19 20 10 11 1007.8 1007.7 0.0
19/03:00am 11.8 7.4 4.8 62 3.2 WSW 17 20 9 11 1007.6 1007.5 0.0
19/02:30am 11.8 7.4 4.8 62 3.2 WSW 17 20 9 11 1007.4 1007.3 0.0
19/02:00am 11.9 8.0 5.5 65 3.0 SW 15 20 8 11 1007.3 1007.2 0.0
19/01:30am 12.1 7.7 5.0 62 3.3 WSW 17 22 9 12 1006.9 1006.8 0.0
19/01:00am 12.4 8.3 4.6 59 3.6 WSW 15 20 8 11 1007.2 1007.1 0.0
19/12:30am 12.4 8.4 4.9 60 3.4 SW 15 24 8 13 1006.7 1006.6 0.0
19/12:00am 13.0 7.3 4.7 57 3.8 WSW 24 30 13 16 1006.0 1005.9 0.0
 
Date/Time
EDT
Temp
°C
App
Temp
°C
Dew
Point
Rel
Hum
%
Delta-T
°C
Wind Press
QNH
hPa
Press
MSL
hPa
Rain
since 9 am
mm
Dir
 
Spd
km/h
Gust
km/h
Spd
kts
Gust
kts
18/11:30pm 13.5 7.4 4.9 56 4.0 WSW 26 37 14 20 1005.8 1005.7 0.0
18/11:00pm 13.9 7.8 5.0 55 4.2 SW 26 32 14 17 1005.8 1005.7 0.0
18/10:30pm 14.3 8.2 4.9 53 4.4 WSW 26 35 14 19 1005.7 1005.6 0.0
18/10:00pm 14.6 8.6 5.4 54 4.4 W 26 37 14 20 1005.3 1005.2 0.0
18/09:30pm 15.1 9.5 5.3 52 4.6 WSW 24 37 13 20 1004.5 1004.4 0.0
18/09:00pm 15.6 11.3 6.9 56 4.3 SW 19 22 10 12 1003.7 1003.6 0.0
18/08:30pm 15.8 10.2 7.3 57 4.2 W 26 32 14 17 1003.0 1002.9 0.0
18/08:00pm 16.4 11.2 7.3 55 4.6 W 24 32 13 17 1002.4 1002.3 0.0
18/07:30pm 16.4 11.7 7.9 57 4.3 W 22 32 12 17 1001.8 1001.7 0.0
18/07:00pm 17.2 10.5 7.5 53 4.9 W 32 41 17 22 1001.2 1001.1 0.0
18/06:30pm 16.0 9.2 7.5 57 4.2 W 33 43 18 23 1001.0 1000.9 0.0
18/06:00pm 15.6 10.0 8.8 64 3.5 W 28 35 15 19 1000.5 1000.4 0.0
18/05:30pm 15.6 7.8 9.9 69 3.0 W 41 54 22 29 1000.3 1000.2 0.0
18/05:00pm 16.8 10.3 11.7 72 2.8 N 37 46 20 25 1000.4 1000.3 0.0
18/04:30pm 18.5 12.4 11.6 64 3.8 NNE 35 43 19 23 999.4 999.3 0.0
18/04:00pm 18.3 11.0 10.2 59 4.4 NNE 39 48 21 26 999.4 999.3 0.0
18/03:30pm 18.7 12.3 10.8 60 4.3 N 35 46 19 25 999.6 999.5 0.0
18/03:00pm 19.2 13.7 10.7 58 4.6 NNE 30 46 16 25 1000.0 999.9 0.0
18/02:30pm 18.4 12.7 9.7 57 4.6 NNE 30 37 16 20 1000.3 1000.2 0.0
18/02:00pm 18.7 15.2 8.9 53 5.1 N 17 26 9 14 1000.8 1000.7 0.0
18/01:30pm 18.6 14.6 9.1 54 5.0 N 20 28 11 15 1001.2 1001.1 0.0
18/01:00pm 18.6 14.2 8.8 53 5.1 NNE 22 26 12 14 1001.8 1001.7 0.0
18/12:30pm 17.8 11.7 9.7 59 4.3 N 32 35 17 19 1002.2 1002.1 0.0
18/12:00pm 17.4 10.4 8.5 56 4.6 N 35 41 19 22 1002.4 1002.3 0.0
18/11:30am 17.0 10.2 9.2 60 4.1 N 35 41 19 22 1002.6 1002.5 0.0
18/11:00am 15.9 7.4 8.4 61 3.8 N 43 48 23 26 1002.7 1002.6 0.0
18/10:30am 16.3 7.7 9.0 62 3.8 NNW 44 54 24 29 1002.9 1002.8 0.0
18/10:00am 16.0 7.4 8.7 62 3.7 N 44 50 24 27 1003.1 1003.0 0.0
18/09:30am 16.6 10.2 8.6 59 4.1 NNW 32 39 17 21 1003.6 1003.5 0.0
18/09:00am 15.4 9.9 7.7 60 3.9 N 26 33 14 18 1003.9 1003.8 0.0
18/08:30am 15.7 11.3 6.4 54 4.5 NNW 19 22 10 12 1004.1 1004.0 0.0
18/08:00am 14.1 10.5 5.2 55 4.2 NNW 13 19 7 10 1004.2 1004.1 0.0
18/07:30am 13.5 10.8 5.7 59 3.7 NNW 9 13 5 7 1004.2 1004.1 0.0
18/07:00am 13.1 10.6 6.5 64 3.2 NW 9 13 5 7 1004.3 1004.2 0.0
18/06:30am 11.7 8.8 6.4 70 2.5 WNW 11 15 6 8 1004.2 1004.1 0.0
18/06:00am 11.5 8.5 6.2 70 2.5 WNW 11 15 6 8 1004.0 1003.9 0.0
18/05:30am 12.4 10.3 6.5 67 2.8 NNE 7 20 4 11 1003.8 1003.7 0.0
18/05:00am 11.8 9.9 6.9 72 2.4 WNW 6 7 3 4 1004.1 1004.0 0.0
18/04:30am 11.5 9.4 6.8 73 2.2 NW 7 11 4 6 1004.0 1003.9 0.0
18/04:00am 11.9 10.0 7.6 75 2.1 NW 7 9 4 5 1003.8 1003.7 0.0
18/03:30am 12.1 9.9 8.0 76 2.0 NNW 9 11 5 6 1003.8 1003.7 0.0
18/03:00am 12.2 10.2 8.5 78 1.8 NW 9 11 5 6 1003.7 1003.6 0.0
18/02:30am 12.3 10.2 8.4 77 1.9 NW 9 11 5 6 1003.7 1003.6 0.0
18/02:00am 12.9 10.8 8.4 74 2.2 W 9 11 5 6 1004.0 1003.9 0.0
18/01:30am 12.8 10.0 8.5 75 2.1 W 13 17 7 9 1004.3 1004.2 0.0
18/01:00am 12.7 10.9 9.3 80 1.7 W 9 9 5 5 1004.3 1004.2 0.0
18/12:30am 13.3 11.9 9.4 77 2.0 W 7 9 4 5 1004.6 1004.5 0.0
18/12:00am 14.4 13.3 8.4 67 3.0 NW 4 6 2 3 1004.7 1004.6 0.0
 
Date/Time
EDT
Temp
°C
App
Temp
°C
Dew
Point
Rel
Hum
%
Delta-T
°C
Wind Press
QNH
hPa
Press
MSL
hPa
Rain
since 9 am
mm
Dir
 
Spd
km/h
Gust
km/h
Spd
kts
Gust
kts
17/11:30pm 14.7 13.4 7.5 62 3.6 N 4 6 2 3 1005.2 1005.1 0.0
17/11:00pm 14.8 13.4 7.4 61 3.7 NE 4 7 2 4 1005.6 1005.5 0.0
17/10:30pm 15.1 13.1 7.2 59 3.9 ENE 7 11 4 6 1005.8 1005.7 0.0
17/10:00pm 15.1 12.0 7.2 59 3.9 E 13 17 7 9 1005.9 1005.8 0.0
17/09:30pm 14.9 11.5 7.5 61 3.7 ENE 15 19 8 10 1005.9 1005.8 0.0
17/09:00pm 14.9 11.4 7.0 59 3.9 ENE 15 19 8 10 1005.8 1005.7 0.0
17/08:30pm 14.9 11.7 6.7 58 4.0 ENE 13 19 7 10 1005.8 1005.7 0.0
17/08:00pm 15.2 12.6 6.2 55 4.4 ENE 9 13 5 7 1005.7 1005.6 0.0
17/07:30pm 15.5 12.9 6.0 53 4.6 NE 9 13 5 7 1005.4 1005.3 0.0
17/07:00pm 15.6 10.9 5.2 50 5.0 NE 19 24 10 13 1005.0 1004.9 0.0
17/06:30pm 15.8 12.0 5.7 51 4.8 NNE 15 20 8 11 1004.7 1004.6 0.0
17/06:00pm 16.1 12.0 6.3 52 4.8 E 17 24 9 13 1004.3 1004.2 0.0
17/05:30pm 15.8 10.8 6.3 53 4.6 ENE 22 30 12 16 1003.9 1003.8 0.0
17/05:00pm 16.7 10.8 7.4 54 4.7 ESE 28 43 15 23 1003.2 1003.1 0.0
17/04:59pm 16.6 11.0 7.3 54 4.6 ESE 26 41 14 22 1003.2 1003.1 0.0
17/04:30pm 18.6 15.1 7.1 47 5.8 SSE 15 19 8 10 1003.7 1003.6 0.0
17/04:00pm 17.5 13.0 6.1 47 5.6 S 19 22 10 12 1003.7 1003.6 0.0
17/03:30pm 17.1 12.6 6.3 49 5.3 S 19 24 10 13 1003.6 1003.5 0.0
17/03:00pm 16.9 11.4 6.1 49 5.3 S 24 30 13 16 1003.7 1003.6 0.0
17/02:30pm 17.3 12.9 4.6 43 6.0 S 17 20 9 11 1003.5 1003.4 0.0
17/02:00pm 17.9 13.4 4.1 40 6.5 S 17 24 9 13 1003.2 1003.1 0.0
17/01:30pm 18.0 14.5 3.5 38 6.8 S 11 17 6 9 1003.3 1003.2 0.0
17/01:00pm 17.8 13.4 2.9 37 6.9 WSW 15 20 8 11 1003.4 1003.3 0.0
17/12:30pm 18.3 13.3 3.8 38 6.8 W 19 32 10 17 1003.2 1003.1 0.0
17/12:00pm 17.3 12.1 3.6 40 6.4 W 20 32 11 17 1003.0 1002.9 0.0
17/11:30am 16.8 10.5 3.5 41 6.1 W 26 39 14 21 1002.7 1002.6 0.0
17/11:00am 16.1 8.6 4.5 46 5.5 WSW 33 44 18 24 1002.3 1002.2 0.0
17/10:34am 15.9 8.9 4.0 45 5.5 W 30 48 16 26 1002.0 1001.9 0.0
17/10:30am 15.5 9.4 4.6 48 5.1 W 26 35 14 19 1002.2 1002.1 0.0
17/10:00am 14.7 7.6 3.8 48 5.0 W 30 37 16 20 1001.9 1001.8 0.0
17/09:43am 15.0 8.3 3.8 47 5.1 WSW 28 46 15 25 1001.5 1001.4 0.0
17/09:30am 14.9 7.9 4.0 48 5.0 WSW 30 41 16 22 1001.5 1001.4 0.0
17/09:00am 14.4 6.9 3.5 48 5.0 W 32 41 17 22 1001.4 1001.3 0.0
17/08:30am 14.0 7.4 4.0 51 4.6 W 28 35 15 19 1001.0 1000.9 0.0
17/08:26am 13.5 6.7 3.3 50 4.6 W 28 41 15 22 1000.9 1000.8 0.0
17/08:00am 13.6 9.4 3.7 51 4.5 WSW 15 20 8 11 1000.8 1000.7 0.0
17/07:30am 13.0 7.7 3.1 51 4.4 W 20 28 11 15 1000.0 999.9 0.0
17/07:00am 12.4 5.5 2.8 52 4.2 W 28 35 15 19 999.2 999.1 0.0
17/06:30am 12.2 4.3 2.1 50 4.4 WSW 33 46 18 25 998.6 998.6 0.0
17/06:00am 12.1 4.0 3.3 55 3.9 W 35 48 19 26 997.5 997.5 0.0
17/05:30am 11.9 5.2 3.9 58 3.6 W 28 43 15 23 997.6 997.6 0.0
17/05:00am 11.7 6.2 4.0 59 3.5 W 22 32 12 17 996.8 996.8 0.0
17/04:30am 11.9 6.4 4.2 59 3.5 W 22 35 12 19 995.9 995.9 0.0
17/04:00am 12.1 6.2 3.9 57 3.7 W 24 43 13 23 995.4 995.4 0.0
17/03:30am 12.3 5.7 4.0 57 3.7 W 28 46 15 25 994.7 994.7 0.0
17/03:00am 12.1 6.6 3.9 57 3.7 WNW 22 33 12 18 994.2 994.2 0.0
17/02:30am 12.4 6.5 5.6 63 3.2 W 26 39 14 21 993.7 993.7 0.0
17/02:00am 13.1 5.6 6.5 64 3.2 W 35 50 19 27 992.8 992.8 0.0
17/01:30am 12.9 7.2 6.5 65 3.1 WNW 26 37 14 20 992.7 992.7 0.0
17/01:00am 13.4 8.3 6.0 61 3.5 W 22 32 12 17 992.0 992.0 0.0
17/12:30am 13.6 7.8 6.2 61 3.5 W 26 37 14 20 991.3 991.3 0.0
17/12:00am 14.1 9.7 6.5 60 3.7 W 19 39 10 21 990.9 990.9 0.0
 
Date/Time
EDT
Temp
°C
App
Temp
°C
Dew
Point
Rel
Hum
%
Delta-T
°C
Wind Press
QNH
hPa
Press
MSL
hPa
Rain
since 9 am
mm
Dir
 
Spd
km/h
Gust
km/h
Spd
kts
Gust
kts
16/11:30pm 14.3 9.2 6.2 58 3.9 WSW 22 28 12 15 990.9 990.9 0.0
16/11:00pm 14.6 6.7 6.2 57 4.1 W 37 48 20 26 990.3 990.3 0.0
16/10:30pm 15.5 8.5 7.0 57 4.2 W 33 44 18 24 989.8 989.8 0.0
16/10:22pm 15.7 9.0 7.2 57 4.2 W 32 44 17 24 989.7 989.7 0.0
16/10:07pm 16.2 9.1 6.6 53 4.7 WNW 33 54 18 29 989.4 989.4 0.0
16/10:00pm 16.4 8.6 6.5 52 4.9 W 37 54 20 29 989.2 989.2 0.0
16/09:45pm 16.8 10.5 7.2 53 4.8 W 30 50 16 27 989.0 989.0 0.0
16/09:30pm 17.1 12.1 6.6 50 5.2 WNW 22 33 12 18 988.5 988.5 0.0
16/09:00pm 16.9 12.1 7.5 54 4.8 NW 22 43 12 23 987.0 987.0 0.0
16/08:30pm 16.3 12.4 8.8 61 3.8 W 19 26 10 14 986.6 986.6 0.0

Other Formats:

Comma delimited format used in spreadsheet applications
http://www.bom.gov.au/fwo/IDT60801/IDT60801.95988.axf

JavaScript Object Notation format (JSON) in row-major order
http://www.bom.gov.au/fwo/IDT60801/IDT60801.95988.json